Weather observations for the past three days for
Chattanooga, Lovell Field
Imperial (Metric)
Date Time (edt) Wind (mph) Vis. (mi.) Weather Sky Cond. Temperature (ºF) Relative Humidity Wind Chill (°F) Heat Index (°F) Pressure Precipitation (in)
Air Dwpt 6 hour altimeter (in) sea level (mb) 1 hr 3 hr 6 hr
Max. Min.
24 08:53 Vrbl 5 10.00 Partly Cloudy FEW021 FEW045 FEW070 SCT250 81 72 74% 85 29.96 1013.3
24 07:53 N 6 10.00 Mostly Cloudy FEW025 FEW045 BKN070 78.1 72 79 75 82% 80 29.94 1012.7
24 06:53 N 3 10.00 Partly Cloudy FEW025 FEW045 SCT070 75.9 73 91% 76 29.92 1012.2
24 05:53 Calm 10.00 A Few Clouds FEW045 FEW070 75.9 73 91% 76 29.91 1011.9
24 04:53 Calm 10.00 Fair CLR 75.9 73 91% 76 29.9 1011.4
24 03:53 NW 3 10.00 Fair CLR 75 73 94% 73 29.89 1011.4
24 02:53 Calm 10.00 A Few Clouds FEW041 77 73 88% 78 29.9 1011.5
24 01:53 NW 5 10.00 A Few Clouds FEW043 75.9 72 91.9 75 88% 76 29.9 1011.4 0.01 0.02
24 00:53 SW 10 G 20 5.00 Thunderstorm Rain FEW050 BKN090 OVC120 75.9 70 82% 77 29.9 1011.4 0.01
23 23:53 NW 8 G 23 8.00 Thunderstorm Light Rain BKN048CB BKN070 BKN120 BKN250 81 72 74% 85 29.89 1011.1
23 22:53 S 5 10.00 Mostly Cloudy FEW065 FEW085 SCT120 BKN250 87.1 66.9 51% 90 29.87 1010.5
23 21:53 S 5 10.00 Mostly Cloudy FEW060 SCT100 BKN130 BKN250 89.1 66.9 48% 92 29.86 1010.2
23 20:53 SW 6 10.00 Mostly Cloudy FEW065 SCT100 BKN150 BKN250 91 66.9 45% 94 29.86 1010.1
23 19:53 SW 10 10.00 Partly Cloudy FEW150 SCT250 93 66 97 91.9 41% 96 29.85 1010.0
23 18:53 SW 10 10.00 Mostly Cloudy FEW070 SCT150 BKN250 93 64 38% 95 29.85 1010.0
23 17:53 SW 10 G 20 10.00 Mostly Cloudy SCT070 BKN150 BKN250 95 64 36% 97 29.87 1010.4
23 16:53 W 12 10.00 Mostly Cloudy SCT070 BKN160 BKN210 96.1 64 35% 98 29.88 1010.9
23 15:53 W 7 10.00 Partly Cloudy SCT060 SCT210 95 64 36% 97 29.89 1011.2
23 14:53 NW 8 10.00 Mostly Cloudy SCT060 BKN210 93.9 66 40% 97 29.93 1012.5
23 13:53 SW 9 G 20 10.00 Mostly Cloudy SCT060 BKN210 93.9 60.1 93.9 75 32% 94 29.95 1013.1
23 12:53 W 13 G 17 10.00 Mostly Cloudy SCT060 BKN250 93 63 37% 94 29.97 1013.8
23 10:53 Vrbl 6 10.00 A Few Clouds FEW250 89.1 68 50% 93 29.99 1014.4
23 09:53 Calm 10.00 A Few Clouds FEW250 84 68 59% 87 29.99 1014.7
23 08:53 Calm 10.00 A Few Clouds FEW075 FEW250 80.1 66 62% 82 29.99 1014.7
23 07:53 SW 3 10.00 Partly Cloudy SCT075 75 69.1 79 72 82% 75 29.98 1014.4
23 06:53 Calm 10.00 Partly Cloudy SCT075 73.9 69.1 85% 29.98 1014.1
23 05:53 Calm 10.00 A Few Clouds FEW070 73.9 69.1 85% 29.98 1014.2
23 04:53 Calm 10.00 Fair CLR 73.9 69.1 85% 29.98 1014.1
23 03:53 Calm 10.00 Mostly Cloudy BKN090 75.9 70 82% 77 29.98 1014.2
23 02:53 Calm 10.00 Fair CLR 75.9 70 82% 77 29.98 1014.3
23 01:53 Calm 10.00 Fair CLR 78.1 70 93 78.1 76% 80 29.99 1014.5
23 00:53 Calm 10.00 Fair CLR 80.1 70 71% 83 30 1014.9
22 23:53 Calm 10.00 Fair CLR 82 68 63% 85 30.01 1015.1
22 22:53 Calm 10.00 Fair CLR 81 68 65% 84 30.01 1015.1
22 21:53 Calm 10.00 A Few Clouds FEW200 84 66.9 57% 87 30 1014.8
22 20:53 SW 3 10.00 A Few Clouds FEW100 FEW200 90 64.9 44% 92 29.99 1014.5
22 19:53 SW 7 10.00 Partly Cloudy FEW070 FEW100 SCT200 93 64.9 96.1 91.9 40% 95 29.99 1014.6
22 18:53 W 9 10.00 Mostly Cloudy SCT065 BKN075 BKN100 BKN200 95 66 39% 98 29.99 1014.7
22 17:53 N 7 10.00 Mostly Cloudy SCT065 BKN075 BKN110 96.1 66 37% 100 30 1014.9
22 16:53 NW 8 10.00 Mostly Cloudy SCT065 BKN085 BKN110 BKN250 93 64.9 40% 95 30.02 1015.5
22 15:53 W 6 10.00 Mostly Cloudy BKN060 BKN100 BKN250 93.9 64.9 38% 96 30.04 1016.2
22 14:53 Calm 10.00 Mostly Cloudy BKN060TCU BKN250 95 64.9 37% 98 30.06 1016.9
22 13:53 E 6 10.00 Mostly Cloudy BKN060 BKN250 93 64.9 93.9 77 40% 95 30.09 1017.8
22 12:53 SW 5 10.00 Partly Cloudy FEW060 SCT250 91 64.9 42% 93 30.11 1018.6
22 11:53 SW 6 10.00 Mostly Cloudy FEW060 BKN240 90 64.9 44% 92 30.13 1019.2
22 10:53 SE 7 10.00 Mostly Cloudy SCT065 BKN240 87.1 64.9 48% 89 30.14 1019.6
22 09:53 S 3 10.00 Mostly Cloudy SCT065 BKN240 84 66 55% 86 30.16 1020.2
22 08:53 Calm 10.00 Partly Cloudy FEW084 SCT240 81 68 65% 84 30.16 1020.3
22 07:53 SW 3 10.00 Partly Cloudy FEW084 SCT240 77 69.1 78.1 73 77% 79 30.15 1020.2
22 06:53 Calm 10.00 Mostly Cloudy SCT084 BKN250 73 68 84% 30.15 1020.0
22 05:53 Calm 10.00 Mostly Cloudy SCT084 BKN250 73.9 68 82% 30.15 1020.0
22 04:53 Calm 10.00 Fair CLR 75.9 68 77% 77 30.15 1019.8
22 03:53 Calm 10.00 Fair CLR 75.9 68 77% 77 30.14 1019.5
22 02:53 Calm 10.00 Fair CLR 77 68 74% 79 30.14 1019.5
22 01:53 Calm 10.00 Fair CLR 78.1 66.9 91.9 77 69% 80 30.14 1019.7
22 00:53 Calm 10.00 Fair CLR 80.1 66 62% 82 30.15 1019.9
21 23:53 Calm 10.00 Mostly Cloudy BKN250 80.1 66.9 64% 82 30.14 1019.8
21 22:53 SW 3 10.00 Mostly Cloudy BKN250 82 66 58% 84 30.13 1019.5
21 21:53 Calm 10.00 Mostly Cloudy BKN250 84 66.9 57% 87 30.12 1019.1
21 20:53 NW 3 10.00 Partly Cloudy FEW065 SCT250 87.1 64 46% 88 30.11 1018.7
21 19:53 NW 8 10.00 Partly Cloudy FEW070 SCT250 91.9 62.1 97 91 37% 93 30.11 1018.8
21 18:53 N 8 10.00 Partly Cloudy FEW070 SCT250 93.9 63 36% 95 30.12 1019.0
21 17:53 Vrbl 3 10.00 Partly Cloudy SCT070 SCT100 SCT250 96.1 63 34% 98 30.13 1019.3
21 16:53 N 7 10.00 Partly Cloudy SCT065 SCT250 96.1 63 34% 98 30.15 1019.9
21 15:53 N 9 10.00 Partly Cloudy SCT065 SCT250 95 63 35% 96 30.16 1020.5
21 14:53 NW 8 10.00 Mostly Cloudy SCT060 BKN250 91.9 64 40% 94 30.19 1021.3
21 13:53 Vrbl 6 10.00 Mostly Cloudy SCT060 BKN250 91 64.9 91.9 73 42% 93 30.22 1022.3
21 12:53 Vrbl 3 10.00 Mostly Cloudy SCT060 SCT075 BKN250 90 64 42% 91 30.24 1023.2
21 11:53 E 6 10.00 Mostly Cloudy FEW055 SCT070 BKN250 87.1 64 46% 88 30.26 1023.8
21 10:53 S 7 10.00 Mostly Cloudy SCT060 BKN250 84.9 64 50% 86 30.27 1024.1
21 09:53 Calm 10.00 Mostly Cloudy SCT060 BKN250 82.9 68 61% 86 30.28 1024.3
Date Time (edt) Wind (mph) Vis. (mi.) Weather Sky Cond. Air Dwpt Max. Min. Relative Humidity Wind Chill (°F) Heat Index (°F) altimeter (in) sea level (mb) 1 hr 3 hr 6 hr
6 hour
Temperature (ºF) Pressure Precipitation (in)